When you browse on this site, cookies collect data to enhance your experience and personalize the content and advertising you see.
Visit our Privacy Policy to learn more. By continuing to use the site, you agree to this use of cookies and data.
  • In Deutschland
  • Länderverzeichnis
  • Für 7 Tage
  • Wassertemperatur
  • Satellitenkarten
  • Wetterkarte
  • Widgets
  • user-avatar
    Anmelden

    Stündliche Wetter Benguela

    Heute, 19 Juni, Mittwoch

    Zeit Temperatur Niederschläge Wind Luftdruck Luftfeuchtigkeit
    00:00 +22°C° 0 mm 1 m/S 761 mmHg 72%
    01:00 +22°C° 0 mm 1 m/S 761 mmHg 68%
    02:00 +22°C° 0 mm 1 m/S 761 mmHg 69%
    03:00 +21°C° 0 mm 1 m/S 761 mmHg 71%
    04:00 +21°C° 0 mm 1 m/S 761 mmHg 72%
    05:00 +21°C° 0 mm 2 m/S 761 mmHg 67%
    06:00 +21°C° 0 mm 2 m/S 761 mmHg 62%
    07:00 +23°C° 0 mm 2 m/S 762 mmHg 56%
    08:00 +26°C° 0 mm 2 m/S 762 mmHg 46%
    09:00 +30°C° 0 mm 2 m/S 762 mmHg 36%
    10:00 +34°C° 0 mm 2 m/S 762 mmHg 26%
    11:00 +35°C° 0 mm 2 m/S 761 mmHg 27%
    12:00 +35°C° 0 mm 3 m/S 760 mmHg 27%
    13:00 +36°C° 0 mm 4 m/S 760 mmHg 28%
    14:00 +35°C° 0 mm 4 m/S 759 mmHg 32%
    15:00 +34°C° 0 mm 4 m/S 759 mmHg 36%
    16:00 +33°C° 0 mm 4 m/S 759 mmHg 39%
    17:00 +29°C° 0 mm 3 m/S 759 mmHg 51%
    18:00 +26°C° 0 mm 2 m/S 760 mmHg 62%
    19:00 +23°C° 0 mm 1 m/S 760 mmHg 74%
    20:00 +23°C° 0 mm 2 m/S 761 mmHg 72%
    21:00 +23°C° 0 mm 2 m/S 761 mmHg 71%
    22:00 +23°C° 0 mm 2 m/S 762 mmHg 69%
    23:00 +23°C° 0 mm 2 m/S 762 mmHg 65%

    Morgen, 20 Juni, Donnerstag

    Zeit Temperatur Niederschläge Wind Luftdruck Luftfeuchtigkeit
    00:00 +23°C° 0 mm 2 m/S 762 mmHg 61%
    01:00 +23°C° 0 mm 2 m/S 762 mmHg 57%
    02:00 +23°C° 0 mm 2 m/S 761 mmHg 55%
    03:00 +21°C° 0 mm 2 m/S 761 mmHg 54%
    04:00 +21°C° 0 mm 2 m/S 761 mmHg 53%
    05:00 +21°C° 0 mm 2 m/S 761 mmHg 51%
    06:00 +23°C° 0 mm 2 m/S 761 mmHg 49%
    07:00 +23°C° 0 mm 2 m/S 762 mmHg 48%
    08:00 +27°C° 0 mm 2 m/S 762 mmHg 39%
    09:00 +30°C° 0 mm 1 m/S 761 mmHg 30%
    10:00 +34°C° 0 mm 1 m/S 761 mmHg 22%
    11:00 +36°C° 0 mm 2 m/S 761 mmHg 21%
    12:00 +36°C° 0 mm 3 m/S 760 mmHg 21%
    13:00 +37°C° 0 mm 4 m/S 759 mmHg 21%
    14:00 +36°C° 0 mm 3 m/S 759 mmHg 23%
    15:00 +35°C° 0 mm 2 m/S 759 mmHg 26%
    16:00 +34°C° 0 mm 2 m/S 758 mmHg 28%
    17:00 +30°C° 0 mm 1 m/S 759 mmHg 39%
    18:00 +27°C° 0 mm 1 m/S 759 mmHg 49%
    19:00 +22°C° 0 mm 0 m/S 760 mmHg 60%
    20:00 +22°C° 0 mm 0 m/S 760 mmHg 57%
    21:00 +24°C° 0 mm 1 m/S 761 mmHg 55%
    22:00 +24°C° 0 mm 1 m/S 761 mmHg 52%
    23:00 +24°C° 0 mm 1 m/S 761 mmHg 50%

    übermorgen, 21 Juni, Freitag

    Zeit Temperatur Niederschläge Wind Luftdruck Luftfeuchtigkeit
    00:00 +23°C° 0 mm 1 m/S 761 mmHg 48%
    01:00 +23°C° 0 mm 1 m/S 761 mmHg 46%
    02:00 +23°C° 0 mm 1 m/S 761 mmHg 46%
    03:00 +23°C° 0 mm 2 m/S 760 mmHg 45%
    04:00 +23°C° 0 mm 2 m/S 760 mmHg 45%
    05:00 +23°C° 0 mm 2 m/S 761 mmHg 44%
    06:00 +23°C° 0 mm 2 m/S 761 mmHg 43%
    07:00 +23°C° 0 mm 2 m/S 761 mmHg 42%
    08:00 +27°C° 0 mm 1 m/S 761 mmHg 35%
    09:00 +30°C° 0 mm 1 m/S 761 mmHg 28%
    10:00 +34°C° 0 mm 1 m/S 761 mmHg 21%
    11:00 +35°C° 0 mm 2 m/S 761 mmHg 22%
    12:00 +35°C° 0 mm 3 m/S 760 mmHg 23%
    13:00 +36°C° 0 mm 4 m/S 759 mmHg 24%
    14:00 +34°C° 0 mm 3 m/S 759 mmHg 29%
    15:00 +33°C° 0 mm 3 m/S 758 mmHg 33%
    16:00 +31°C° 0 mm 3 m/S 758 mmHg 38%
    17:00 +28°C° 0 mm 2 m/S 758 mmHg 51%
    18:00 +25°C° 0 mm 1 m/S 759 mmHg 63%
    19:00 +21°C° 0 mm 0 m/S 760 mmHg 76%
    20:00 +23°C° 0 mm 1 m/S 760 mmHg 74%
    21:00 +23°C° 0 mm 1 m/S 760 mmHg 72%
    22:00 +23°C° 0 mm 1 m/S 761 mmHg 70%
    23:00 +23°C° 0 mm 1 m/S 761 mmHg 65%

    22 Juni, Samstag

    Zeit Temperatur Niederschläge Wind Luftdruck Luftfeuchtigkeit
    00:00 +23°C° 0 mm 1 m/S 760 mmHg 61%
    01:00 +22°C° 0 mm 1 m/S 760 mmHg 57%
    02:00 +22°C° 0 mm 1 m/S 760 mmHg 64%
    03:00 +21°C° 0 mm 1 m/S 760 mmHg 64%
    04:00 +20°C° 0 mm 2 m/S 760 mmHg 64%
    05:00 +20°C° 0 mm 2 m/S 760 mmHg 61%
    06:00 +21°C° 0 mm 2 m/S 760 mmHg 59%
    07:00 +21°C° 0 mm 2 m/S 761 mmHg 57%
    08:00 +25°C° 0 mm 2 m/S 761 mmHg 50%
    09:00 +28°C° 0 mm 3 m/S 761 mmHg 43%
    10:00 +31°C° 0 mm 3 m/S 761 mmHg 36%
    11:00 +32°C° 0 mm 4 m/S 760 mmHg 40%
    12:00 +32°C° 0 mm 4 m/S 760 mmHg 45%
    13:00 +32°C° 0 mm 4 m/S 759 mmHg 50%
    14:00 +30°C° 0 mm 4 m/S 759 mmHg 54%
    15:00 +29°C° 0 mm 3 m/S 758 mmHg 59%
    16:00 +28°C° 0 mm 3 m/S 758 mmHg 63%
    17:00 +26°C° 0 mm 2 m/S 759 mmHg 73%
    18:00 +24°C° 0 mm 2 m/S 759 mmHg 83%
    19:00 +22°C° 0 mm 1 m/S 760 mmHg 93%
    20:00 +22°C° 0 mm 1 m/S 760 mmHg 93%
    21:00 +22°C° 0 mm 1 m/S 761 mmHg 93%
    22:00 +22°C° 0 mm 1 m/S 761 mmHg 93%
    23:00 +22°C° 0 mm 1 m/S 761 mmHg 92%

    23 Juni, Sonntag

    Zeit Temperatur Niederschläge Wind Luftdruck Luftfeuchtigkeit
    00:00 +21°C° 0 mm 1 m/S 761 mmHg 91%
    01:00 +21°C° 0 mm 1 m/S 761 mmHg 89%
    02:00 +20°C° 0 mm 1 m/S 761 mmHg 89%
    03:00 +20°C° 0 mm 1 m/S 761 mmHg 89%
    04:00 +20°C° 0 mm 1 m/S 760 mmHg 89%
    05:00 +20°C° 0 mm 1 m/S 761 mmHg 87%
    06:00 +20°C° 0 mm 1 m/S 761 mmHg 84%
    07:00 +21°C° 0 mm 1 m/S 761 mmHg 82%
    08:00 +24°C° 0 mm 1 m/S 761 mmHg 69%
    09:00 +27°C° 0 mm 1 m/S 761 mmHg 56%
    10:00 +30°C° 0 mm 1 m/S 761 mmHg 43%
    11:00 +30°C° 0 mm 2 m/S 761 mmHg 45%
    12:00 +31°C° 0 mm 3 m/S 760 mmHg 47%
    13:00 +32°C° 0 mm 4 m/S 759 mmHg 50%
    14:00 +30°C° 0 mm 4 m/S 759 mmHg 53%
    15:00 +29°C° 0 mm 3 m/S 759 mmHg 56%
    16:00 +28°C° 0 mm 3 m/S 759 mmHg 60%
    17:00 +26°C° 0 mm 2 m/S 759 mmHg 70%
    18:00 +24°C° 0 mm 2 m/S 760 mmHg 79%
    19:00 +22°C° 0 mm 1 m/S 760 mmHg 89%
    20:00 +21°C° 0 mm 1 m/S 761 mmHg 90%
    21:00 +21°C° 0 mm 1 m/S 761 mmHg 92%
    22:00 +21°C° 0 mm 1 m/S 761 mmHg 93%
    23:00 +20°C° 0 mm 1 m/S 761 mmHg 92%

    24 Juni, Montag

    Zeit Temperatur Niederschläge Wind Luftdruck Luftfeuchtigkeit
    00:00 +20°C° 0 mm 1 m/S 761 mmHg 90%
    01:00 +20°C° 0 mm 1 m/S 761 mmHg 89%
    02:00 +20°C° 0 mm 1 m/S 761 mmHg 88%
    03:00 +19°C° 0 mm 1 m/S 761 mmHg 88%
    04:00 +19°C° 0 mm 1 m/S 761 mmHg 87%
    05:00 +19°C° 0 mm 1 m/S 761 mmHg 85%
    06:00 +20°C° 0 mm 1 m/S 761 mmHg 83%
    07:00 +20°C° 0 mm 1 m/S 762 mmHg 81%
    08:00 +23°C° 0 mm 1 m/S 762 mmHg 67%
    09:00 +26°C° 0 mm 1 m/S 761 mmHg 53%
    10:00 +29°C° 0 mm 1 m/S 761 mmHg 40%
    11:00 +30°C° 0 mm 2 m/S 761 mmHg 39%
    12:00 +31°C° 0 mm 3 m/S 760 mmHg 38%
    13:00 +34°C° 0 mm 4 m/S 759 mmHg 37%
    14:00 +33°C° 0 mm 4 m/S 759 mmHg 41%
    15:00 +32°C° 0 mm 4 m/S 759 mmHg 45%
    16:00 +30°C° 0 mm 4 m/S 758 mmHg 48%
    17:00 +27°C° 0 mm 4 m/S 759 mmHg 61%
    18:00 +24°C° 0 mm 3 m/S 759 mmHg 75%
    19:00 +20°C° 0 mm 3 m/S 760 mmHg 88%
    20:00 +20°C° 0 mm 2 m/S 760 mmHg 88%
    21:00 +19°C° 0 mm 2 m/S 761 mmHg 89%
    22:00 +20°C° 0 mm 1 m/S 761 mmHg 89%
    23:00 +20°C° 0 mm 1 m/S 761 mmHg 87%
    Mehr zeigen